SL-14 DEB, 47088

Orbit data source: Space-Track

SL-14 DEB, 47088 is space debris in LEO originally from a launch on Thu, 15 Aug 1991 UTC launched from the Plesetsk Missile And Space Complex (PKMTR). Debris objects in space refer to the collection of defunct objects orbiting the Earth. Examples of debris include non-operational satellites, rocket bodies, and fragments generated from explosions, collisions, or faulty payload assembly.

Loading next visibility...
Identifier
47088, 1991-056DN
Orbit
LEO
Country
Flag of CISCIS
Related business
Manufacturer
Unknown
Mission
Spacecraft
Bus & Motor
Unknown
Mass
Unknown
Launch date (UTC)
1991-08-15 (35 years ago)
Launch vehicle
Unknown
Launch site
Plesetsk Missile And Space Complex (PKMTR)
Object type
Payload
Rocket body
Debris
Shape & HBR
Unknown shape, 1.1 m
Radar Cross Section
Medium (>0.1 m² and <1 m²)

Expand to show TLE details & history
Last TLE update: 3 weeks ago

TLE from 3 weeks ago
0 SL-14 DEB
1 47088U 91056DN  26152.11250522  .00010947  00000-0  18237-1 0  9995
2 47088  82.6400 184.6479 0142399  20.7080 339.9746 13.42355899105515
Epoch: 2026-06-01T02:42Z
TLE epoch observation values (Epoch: 2026-06-01T02:42:00.451Z)
Latitude
-0.00011°
Longitude
-105.45849°
Altitude
1,003.468 km
Speed
7.399 km/s
True Right ascension
12h 18m 35s
True Declination
0° 00' 00"
Sunlit
Object was in daylight at epoch
Visualization orbit readout
Latitude
Unknown
Longitude
Unknown
Altitude
Unknown
Speed
Unknown
Apparent Right ascension
Unknown
Apparent Declination
Unknown
Sunlit
N/A
Visualization observer readout
Local Sidereal Time
21:48:33
Azimuth
Unknown
Elevation
Unknown
Doppler factor
Unknown
Orbital elements
Apogee altitude
1,204.177 km
Perigee altitude
991.266 km
Semi-major axis
7,475.858 km
Eccentricity
0.01424
Inclination
82.64°
RAAN
184.6479°
Arg. of periapsis
20.708°
True anomaly
339.40633°
Mean anomaly
339.9746°
Eccentric anomaly
339.69143°
Mean motion
3.35778 °/min
Orbital period
107.21 mins
BSTAR
0.018237
Loading maneuver chart data...
Computing Atmospheric mass density...
Loading historical data...
Loading historical data...
Loading historical data...
Loading historical data...
Loading historical data...
Loading historical data...
Loading historical data...

Documentation

Showing up to 5 results
|